STARLINK-4415 (53465 NORAD) Tracking and Keplerian Element Data

This shows tracking and keplerian element data for the satellite.

Feedback or suggestion? Click here.




ElementValue
Catalog53465
NameSTARLINK-4415
Epoch Orbit1522
Epoch Day324.85273943
Epoch Year2022
RAAN83.9156
Inclination97.6545
Eccentricity0.0001541
Argument of Perigee0.459
Mean Anonmoly359.6635
Mean Motion15.01265024
Decay Rate-9.45E-06
L11 53465U 22099A 22324.85273943 -.00000945 00000+0 -68982-4 0 9995
L22 53465 97.6545 83.9156 0001541 0.4590 359.6635 15.01265024 15225



Live tracking and technical data element details for STARLINK-4415 (NORAD 53465). STARLINK-4415 can be tracked NOW for your location showing map with azimuth and elevation plus other details from your city location.







IsCatalogInMostPopularTable: catalog: 53465, numindb: 5
Update: records affected: 1



GetName: 53465 STARLINK-4415

Hit Count: updated at: Thu, 08 Dec 2022 10:07:09 GMT